Regional Weather Roundup
Issued by NWS

Home | Current Version | Previous Version | Graphics & Text | Print | Product List | Glossary On
Versions: 1 2 3 4 5 6 7 8 9 10 11 12 13 14 15 16 17 18 19 20 21 22 23 24 25 26 27 28 29 30 31 32 33 34 35 36 37 38 39 40 41 42 43 44 45 46 47 48 49 50
000
ASUS43 KBIS 230710
RWRND

NORTH DAKOTA REGIONAL WEATHER ROUNDUP
NATIONAL WEATHER SERVICE BISMARCK ND
200 AM CDT WED APR 23 2014

NOTE: "FAIR" INDICATES FEW OR NO CLOUDS BELOW 12,000 FEET WITH NO
SIGNIFICANT WEATHER AND/OR OBSTRUCTIONS TO VISIBILITY.


NDZ001>003-009>011-017-230800-
NORTHWEST NORTH DAKOTA

CITY           SKY/WX    TMP DP  RH WIND       PRES   REMARKS
WILLISTON      CLOUDY    54  32  43 E23G38    29.56F
MINOT          PTCLDY    47  33  58 E16G25    29.73F
MINOT AFB      PTCLDY    46  34  63 SE22      29.73F
$$

NDZ018>021-031>035-040>046-230800-
SOUTHWEST NORTH DAKOTA

CITY           SKY/WX    TMP DP  RH WIND       PRES   REMARKS
BISMARCK       CLOUDY    51  42  71 SE22G31   29.70F
DICKINSON      LGT RAIN  53  33  46 SE22G32   29.55F
GARRISON         N/A     51  34  52 E24G35    29.68F
HETTINGER ARPT CLOUDY    52  32  46 E17       29.54F
$$

NDZ004>008-012>016-024-026-027-054-230800-
NORTHEAST NORTH DAKOTA

CITY           SKY/WX    TMP DP  RH WIND       PRES   REMARKS
GRAND FORKS    PTCLDY    46  27  47 SE14      29.96F
GRND FRKS AFB  PTCLDY    42  29  60 E9        29.95F
DEVILS LAKE    CLEAR     43  30  61 SE14      29.88F
$$

NDZ022-023-025-028>030-036>039-047>053-230800-
SOUTHEAST NORTH DAKOTA

CITY           SKY/WX    TMP DP  RH WIND       PRES   REMARKS
FARGO          MOCLDY    48  29  47 SE13      29.95S
JAMESTOWN      CLOUDY    49  35  58 SE22      29.84F
$$




USA.gov is the U.S. government's official web portal to all federal, state and local government web resources and services.